Location: Freemans Gardens
(41.6414°N, 83.6077°W)
Time: 02:37:19
(UTC+00:00)

Cosmos 1656 - Pass Details

Date: 29 October 2020
Orbit: 796 x 851 km, 71.1° (Epoch: 26 November)

Event Time Altitude Azimuth Distance (km) Brightness Sun altitude
Rises 23:17:30 0° 199° (SSW) 3,329 7.2 -9.0°
Reaches altitude 10° 23:19:54 10° 199° (SSW) 2,409 6.5 -9.5°
Maximum altitude 23:25:26 83° 112° (ESE) 841 3.6 -10.5°
Drops below altitude 10° 23:31:05 10° 25° (NNE) 2,461 5.8 -11.5°
Sets 23:33:33 0° 25° (NNE) 3,406 6.5 -12.0°
